San Diego, CA

7:20 AM PST on December 10, 2016 (GMT -0800)
North Island Naval Air Station

Weather History for KNZY - March, 2013

Change the Weather History Date:

Sunday, March 24, 2013

  Actual Average Record
Temperature  
Mean Temperature 60 °F -  
Max Temperature 66 °F 62 °F 84 °F (2008)
Min Temperature 54 °F 52 °F 48 °F (2006)
Degree Days  
Heating Degree Days 5    
Growing Degree Days 10 (Base 50)    
Moisture  
Dew Point 53 °F    
Average Humidity 78    
Maximum Humidity 86    
Minimum Humidity 65    
Precipitation  
Precipitation 0.00 in - - ()
Sea Level Pressure  
Sea Level Pressure 29.97 in    
Wind  
Wind Speed 3 mph (NNW)    
Max Wind Speed 10 mph    
Max Gust Speed -    
Visibility 7 miles    
Events      
Averages and records for this station are not official NWS values.
T = Trace of Precipitation, MM = Missing Value Source: NWS Daily Summary

Daily Weather History Graph

Daily Weather History Graph

Search for Another Location

Airport or City:

Trip Planner

Search our weather history database for the weather conditions in past years. The results will help you decide how hot, cold, wet, or windy it might be!

Date:

Astronomy

Mar. 24, 2013 Rise Set
Actual Time 6:46 AM PDT 7:03 PM PDT
Civil Twilight 6:22 AM PDT 7:28 PM PDT
Nautical Twilight 5:53 AM PDT 7:56 PM PDT
Astronomical Twilight 5:24 AM PDT 8:26 PM PDT
Moon 4:42 PM PDT (3/24) 4:52 AM PDT (3/24)
Length of Visible Light 13h 05m
Length of Day
12h 16m
Waxing Gibbous, 92% of the Moon is Illuminated
Mar 24
Waxing Gibbous
Mar 27
Full
Apr 2
Last Quarter
Apr 10
New
Apr 18
First Quarter

Hourly Weather History & Observations

Time (PDT) Temp. Dew Point Humidity Pressure Visibility Wind Dir Wind Speed Gust Speed Precip Events Conditions
12:52 AM 57.0 °F 52.0 °F 83% 30.01 in 7.0 mi Calm Calm - N/A   Scattered Clouds
1:52 AM 57.0 °F 51.1 °F 81% 30.00 in 7.0 mi Calm Calm - N/A   Scattered Clouds
2:22 AM 55.4 °F 50.0 °F 82% 30.00 in 7.0 mi Calm Calm - N/A   Mostly Cloudy
2:52 AM 57.0 °F 51.1 °F 81% 29.99 in 7.0 mi Calm Calm - N/A   Mostly Cloudy
3:15 AM 57.2 °F 51.8 °F 82% 29.99 in 7.0 mi Calm Calm - N/A   Overcast
3:52 AM 55.9 °F 51.1 °F 84% 29.97 in 7.0 mi ESE 3.5 mph - N/A   Scattered Clouds
4:52 AM 55.9 °F 51.1 °F 84% 29.98 in 6.0 mi East 3.5 mph - N/A   Scattered Clouds
5:52 AM 55.0 °F 50.0 °F 83% 29.98 in 6.0 mi East 3.5 mph - N/A   Partly Cloudy
6:52 AM 54.0 °F 50.0 °F 86% 29.98 in 5.0 mi Calm Calm - N/A   Partly Cloudy
7:52 AM 57.0 °F 52.0 °F 83% 29.99 in 5.0 mi North 3.5 mph - N/A   Partly Cloudy
8:30 AM 59.0 °F 51.8 °F 77% 30.00 in 5.0 mi North 4.6 mph - N/A   Mostly Cloudy
8:52 AM 57.9 °F 52.0 °F 81% 30.00 in 4.0 mi Calm Calm - N/A   Overcast
9:52 AM 61.0 °F 53.1 °F 75% 30.01 in 4.0 mi Variable 4.6 mph - N/A   Mostly Cloudy
10:52 AM 63.0 °F 54.0 °F 72% 30.00 in 7.0 mi NNW 8.1 mph - N/A   Partly Cloudy
11:52 AM 64.0 °F 54.0 °F 70% 29.99 in 7.0 mi NW 10.4 mph - N/A   Partly Cloudy
12:52 PM 64.9 °F 54.0 °F 68% 29.98 in 7.0 mi WNW 10.4 mph - N/A   Partly Cloudy
1:52 PM 66.0 °F 54.0 °F 65% 29.95 in 7.0 mi NW 5.8 mph - N/A   Partly Cloudy
2:52 PM 66.0 °F 54.0 °F 65% 29.92 in 8.0 mi WNW 4.6 mph - N/A   Partly Cloudy
3:52 PM 66.0 °F 54.0 °F 65% 29.92 in 8.0 mi West 8.1 mph - N/A   Partly Cloudy
4:52 PM 64.0 °F 54.0 °F 70% 29.91 in 8.0 mi WNW 9.2 mph - N/A   Scattered Clouds
5:52 PM 63.0 °F 54.0 °F 72% 29.91 in 8.0 mi NW 9.2 mph - N/A   Scattered Clouds
6:52 PM 61.0 °F 55.0 °F 81% 29.91 in 8.0 mi West 4.6 mph - N/A   Scattered Clouds
7:52 PM 61.0 °F 55.0 °F 81% 29.92 in 8.0 mi NW 5.8 mph - N/A   Scattered Clouds
8:25 PM - - N/A% - - North - - N/A   Unknown
8:52 PM 61.0 °F 55.0 °F 81% 29.94 in 8.0 mi NNW 8.1 mph - N/A   Partly Cloudy
9:52 PM 60.1 °F 55.0 °F 83% 29.94 in 8.0 mi North 4.6 mph - N/A   Partly Cloudy
10:00 PM - - N/A% - - North - - N/A   Unknown
10:52 PM 60.1 °F 54.0 °F 80% 29.94 in 7.0 mi North 3.5 mph - N/A   Partly Cloudy
11:52 PM 57.0 °F 51.1 °F 81% 29.94 in 6.0 mi Calm Calm - N/A   Partly Cloudy